Location: Clyde
(45.1830°S, 169.3170°E)
Time: 07:57:46
(UTC+12:00)

Cosmos 1953 Rocket - Pass Details

Date: 14 May 2021
Orbit: 605 x 634 km, 82.5° (Epoch: 20 June)

Event Time Altitude Azimuth Distance (km) Brightness Sun altitude
Rises 17:47:41 0° 4° (N) 2,901 7.2 -4.5°
Reaches altitude 10° 17:49:55 10° 8° (N) 2,007 6.4 -4.9°
Maximum altitude 17:54:17 56° 86° (E) 764 3.8 -5.6°
Drops below altitude 10° 17:58:44 10° 163° (SSE) 2,052 5.9 -6.3°
Sets 18:01:02 0° 167° (SSE) 2,971 6.7 -6.7°
